| time (UTC) | temp F | wind direction | speed MPH | gust MPH | rain 1hr in | rain 24hr in | rain mn in | humidity % | barometer mb |
| 20260906204557 | 94 | 120 | 14.0 | 24.0 | 0.00 | 0.00 | 0.00 | 34 | 1011.5 |
| 20260906203055 | 93 | 141 | 17.0 | 26.0 | 0.00 | 0.00 | 0.00 | 34 | 1011.7 |
| 20260906201555 | 93 | 134 | 18.0 | 27.0 | 0.00 | 0.00 | 0.00 | 34 | 1011.9 |
| 20260906200050 | 92 | 108 | 22.0 | 30.0 | 0.00 | 0.00 | 0.00 | 34 | 1011.9 |
| 20260906194602 | 92 | 121 | 21.0 | 29.0 | 0.00 | 0.00 | 0.00 | 34 | 1012.1 |
| 20260906193057 | 91 | 123 | 20.0 | 27.0 | 0.00 | 0.00 | 0.00 | 35 | 1012.4 |
| 20260906191554 | 91 | 128 | 15.0 | 25.0 | 0.00 | 0.00 | 0.00 | 35 | 1012.6 |
| 20260906190054 | 91 | 133 | 12.0 | 24.0 | 0.00 | 0.00 | 0.00 | 34 | 1012.9 |
| 20260906184549 | 91 | 148 | 14.0 | 25.0 | 0.00 | 0.00 | 0.00 | 34 | 1012.9 |
| 20260906183109 | 91 | 105 | 12.0 | 18.0 | 0.00 | 0.00 | 0.00 | 35 | 1013.2 |
| 20260906181602 | 90 | 150 | 13.0 | 21.0 | 0.00 | 0.00 | 0.00 | 36 | 1013.6 |
| 20260906180114 | 89 | 135 | 13.0 | 21.0 | 0.00 | 0.00 | 0.00 | 36 | 1013.9 |
| 20260906174617 | 89 | 148 | 11.0 | 21.0 | 0.00 | 0.00 | 0.00 | 36 | 1014.1 |
| 20260906173057 | 89 | 190 | 11.0 | 21.0 | 0.00 | 0.00 | 0.00 | 36 | 1014.3 |
| 20260906171611 | 88 | 159 | 15.0 | 24.0 | 0.00 | 0.00 | 0.00 | 37 | 1014.7 |
| 20260906170105 | 88 | 152 | 11.0 | 19.0 | 0.00 | 0.00 | 0.00 | 36 | 1014.6 |
| 20260906164557 | 88 | 198 | 9.0 | 19.0 | 0.00 | 0.00 | 0.00 | 37 | 1014.7 |
| 20260906163058 | 87 | 169 | 12.0 | 21.0 | 0.00 | 0.00 | 0.00 | 38 | 1015.0 |
| 20260906161621 | 86 | 203 | 10.0 | 19.0 | 0.00 | 0.00 | 0.00 | 39 | 1015.1 |
| 20260906160052 | 86 | 195 | 11.0 | 17.0 | 0.00 | 0.00 | 0.00 | 39 | 1015.1 |
| 20260906154604 | 85 | 162 | 10.0 | 17.0 | 0.00 | 0.00 | 0.00 | 41 | 1015.0 |
| 20260906153111 | 84 | 181 | 7.0 | 12.0 | 0.00 | 0.00 | 0.00 | 46 | 1015.1 |
| 20260906151552 | 82 | 197 | 5.0 | 10.0 | 0.00 | 0.00 | 0.00 | 52 | 1015.2 |
| 20260906150054 | 81 | 167 | 6.0 | 10.0 | 0.00 | 0.00 | 0.00 | 55 | 1015.4 |
| 20260906144549 | 79 | 198 | 6.0 | 10.0 | 0.00 | 0.00 | 0.00 | 57 | 1015.4 |
| 20260906143053 | 78 | 196 | 4.0 | 7.0 | 0.00 | 0.00 | 0.00 | 61 | 1015.6 |
| 20260906141619 | 75 | 144 | 3.0 | 6.0 | 0.00 | 0.00 | 0.00 | 69 | 1015.3 |
| 20260906140054 | 71 | 224 | 2.0 | 4.0 | 0.00 | 0.00 | 0.00 | 76 | 1015.3 |
| 20260906134549 | 67 | 0 | 0.0 | 2.0 | 0.00 | 0.00 | 0.00 | 83 | 1015.3 |
| 20260906133109 | 66 | 254 | 2.0 | 3.0 | 0.00 | 0.00 | 0.00 | 82 | 1015.2 |
| 20260906131607 | 65 | 0 | 0.0 | 3.0 | 0.00 | 0.00 | 0.00 | 84 | 1015.3 |
| 20260906130059 | 63 | 200 | 0.0 | 3.0 | 0.00 | 0.00 | 0.00 | 89 | 1015.2 |
| 20260906124601 | 61 | 253 | 2.0 | 4.0 | 0.00 | 0.00 | 0.00 | 88 | 1014.9 |
| 20260906123050 | 63 | 259 | 3.0 | 7.0 | 0.00 | 0.00 | 0.00 | 83 | 1014.7 |
| 20260906121607 | 62 | 240 | 3.0 | 5.0 | 0.00 | 0.00 | 0.00 | 88 | 1014.7 |
| 20260906120104 | 63 | 217 | 2.0 | 4.0 | 0.00 | 0.00 | 0.00 | 87 | 1014.6 |
| 20260906114552 | 63 | 269 | 4.0 | 6.0 | 0.00 | 0.00 | 0.00 | 85 | 1014.5 |
| 20260906113047 | 62 | 278 | 1.0 | 6.0 | 0.00 | 0.00 | 0.00 | 88 | 1014.5 |
| 20260906111553 | 63 | 277 | 2.0 | 6.0 | 0.00 | 0.00 | 0.00 | 86 | 1014.6 |
| 20260906110057 | 62 | 268 | 3.0 | 4.0 | 0.00 | 0.00 | 0.00 | 87 | 1014.6 |
| 20260906104552 | 63 | 274 | 2.0 | 4.0 | 0.00 | 0.00 | 0.00 | 84 | 1014.4 |
| 20260906103057 | 64 | 259 | 1.0 | 4.0 | 0.00 | 0.00 | 0.00 | 83 | 1014.4 |
| 20260906101607 | 64 | 269 | 4.0 | 7.0 | 0.00 | 0.00 | 0.00 | 84 | 1014.2 |
| 20260906100058 | 66 | 284 | 4.0 | 7.0 | 0.00 | 0.00 | 0.00 | 82 | 1014.1 |
| 20260906094559 | 66 | 277 | 4.0 | 7.0 | 0.00 | 0.00 | 0.00 | 83 | 1014.1 |
| 20260906093051 | 67 | 266 | 7.0 | 9.0 | 0.00 | 0.00 | 0.00 | 80 | 1014.0 |
| 20260906091556 | 67 | 0 | 1.0 | 2.0 | 0.00 | 0.00 | 0.00 | 81 | 1014.1 |
| 20260906090058 | 67 | 259 | 2.0 | 4.0 | 0.00 | 0.00 | 0.00 | 81 | 1014.2 |
| 20260906084601 | 68 | 0 | 0.0 | 3.0 | 0.00 | 0.00 | 0.00 | 80 | 1014.1 |
| 20260906083103 | 68 | 202 | 3.0 | 5.0 | 0.00 | 0.00 | 0.00 | 80 | 1014.1 |
| 20260906081548 | 68 | 219 | 3.0 | 5.0 | 0.00 | 0.00 | 0.00 | 80 | 1014.0 |
| 20260906080058 | 69 | 0 | 0.0 | 2.0 | 0.00 | 0.00 | 0.00 | 80 | 1013.9 |
| 20260906074557 | 70 | 0 | 1.0 | 4.0 | 0.00 | 0.00 | 0.00 | 78 | 1013.8 |
| 20260906073049 | 71 | 188 | 1.0 | 3.0 | 0.00 | 0.00 | 0.00 | 75 | 1013.9 |
| 20260906071557 | 72 | 0 | 1.0 | 7.0 | 0.00 | 0.00 | 0.00 | 73 | 1013.8 |
| 20260906070059 | 72 | 269 | 4.0 | 7.0 | 0.00 | 0.00 | 0.00 | 73 | 1013.8 |
| 20260906064556 | 73 | 292 | 7.0 | 9.0 | 0.00 | 0.00 | 0.00 | 70 | 1013.7 |
| 20260906063052 | 72 | 290 | 3.0 | 6.0 | 0.00 | 0.00 | 0.00 | 72 | 1013.7 |
| 20260906061602 | 73 | 264 | 1.0 | 6.0 | 0.00 | 0.00 | 0.00 | 70 | 1013.7 |
| 20260906060133 | 74 | 282 | 3.0 | 6.0 | 0.00 | 0.00 | 0.00 | 69 | 1013.5 |
| 20260906054608 | 73 | 288 | 3.0 | 9.0 | 0.00 | 0.00 | 0.00 | 70 | 1013.6 |
| 20260906053050 | 72 | 279 | 6.0 | 8.0 | 0.00 | 0.00 | 0.00 | 73 | 1013.7 |
| 20260906051558 | 72 | 209 | 1.0 | 3.0 | 0.00 | 0.00 | 0.00 | 74 | 1013.9 |
| 20260906050054 | 73 | 174 | 3.0 | 5.0 | 0.00 | 0.00 | 0.00 | 71 | 1013.7 |
| 20260906044555 | 74 | 246 | 1.0 | 2.0 | 0.00 | 0.00 | 0.00 | 69 | 1013.3 |
| 20260906043051 | 76 | 254 | 1.0 | 4.0 | 0.00 | 0.00 | 0.00 | 65 | 1013.6 |
| 20260906041559 | 77 | 279 | 4.0 | 7.0 | 0.00 | 0.00 | 0.00 | 62 | 1013.6 |
| 20260906040059 | 77 | 266 | 4.0 | 8.0 | 0.00 | 0.00 | 0.00 | 62 | 1013.7 |
| 20260906034602 | 78 | 286 | 5.0 | 7.0 | 0.00 | 0.00 | 0.00 | 60 | 1013.7 |
| 20260906033047 | 79 | 229 | 1.0 | 4.0 | 0.00 | 0.00 | 0.00 | 59 | 1013.6 |
| 20260906031556 | 80 | 243 | 3.0 | 6.0 | 0.00 | 0.00 | 0.00 | 58 | 1013.4 |
| 20260906030057 | 82 | 204 | 4.0 | 8.0 | 0.00 | 0.00 | 0.00 | 55 | 1013.4 |
| 20260906024554 | 82 | 148 | 5.0 | 9.0 | 0.00 | 0.00 | 0.00 | 54 | 1013.3 |
| 20260906023058 | 83 | 157 | 5.0 | 10.0 | 0.00 | 0.00 | 0.00 | 53 | 1013.0 |
| 20260906021601 | 82 | 162 | 8.0 | 12.0 | 0.00 | 0.00 | 0.00 | 53 | 1012.7 |
| 20260906020055 | 83 | 238 | 3.0 | 7.0 | 0.00 | 0.00 | 0.00 | 49 | 1012.1 |
| 20260906014552 | 83 | 258 | 2.0 | 6.0 | 0.00 | 0.00 | 0.00 | 46 | 1011.8 |
| 20260906013048 | 83 | 196 | 6.0 | 8.0 | 0.00 | 0.00 | 0.00 | 46 | 1011.8 |
| 20260906011557 | 82 | 327 | 2.0 | 4.0 | 0.00 | 0.00 | 0.00 | 52 | 1011.6 |
| 20260906010136 | 83 | 135 | 0.0 | 3.0 | 0.00 | 0.00 | 0.00 | 55 | 1011.6 |
| 20260906004556 | 84 | 309 | 3.0 | 8.0 | 0.00 | 0.00 | 0.00 | 49 | 1012.1 |
| 20260906003055 | 85 | 299 | 4.0 | 8.0 | 0.00 | 0.00 | 0.00 | 47 | 1012.8 |
| 20260906001603 | 84 | 277 | 5.0 | 7.0 | 0.00 | 0.00 | 0.00 | 48 | 1012.8 |
| 20260906000052 | 85 | 257 | 3.0 | 5.0 | 0.00 | 0.00 | 0.00 | 48 | 1012.2 |
| 20260905234548 | 85 | 34 | 3.0 | 9.0 | 0.00 | 0.00 | 0.00 | 51 | 1011.9 |
| 20260905233058 | 86 | 111 | 6.0 | 10.0 | 0.00 | 0.00 | 0.00 | 48 | 1011.8 |
| 20260905231556 | 87 | 81 | 6.0 | 8.0 | 0.00 | 0.00 | 0.00 | 44 | 1011.7 |
| 20260905230048 | 86 | 339 | 7.0 | 11.0 | 0.00 | 0.00 | 0.00 | 47 | 1012.4 |
| 20260905224555 | 85 | 317 | 5.0 | 14.0 | 0.00 | 0.00 | 0.00 | 49 | 1012.5 |
| 20260905223056 | 86 | 263 | 7.0 | 10.0 | 0.00 | 0.00 | 0.00 | 49 | 1012.4 |
| 20260905221559 | 86 | 281 | 3.0 | 4.0 | 0.00 | 0.00 | 0.00 | 49 | 1011.9 |
| 20260905220100 | 86 | 0 | 0.0 | 2.0 | 0.00 | 0.00 | 0.00 | 50 | 1012.2 |
| 20260905214554 | 86 | 0 | 0.0 | 6.0 | 0.00 | 0.00 | 0.00 | 49 | 1012.1 |
| 20260905213053 | 85 | 100 | 6.0 | 8.0 | 0.00 | 0.00 | 0.00 | 54 | 1012.1 |
| 20260905211547 | 84 | 205 | 3.0 | 11.0 | 0.00 | 0.00 | 0.00 | 56 | 1012.5 |
| 20260905210116 | 84 | 90 | 6.0 | 9.0 | 0.00 | 0.00 | 0.00 | 60 | 1012.3 |